Location: Colle Santa Colomba
(42.0333°N, 12.5667°E)
Time: 02:39:55
(UTC+00:00)

CZ-2C R/B - Pass Details

Date: 25 October 2021
Orbit: 784 x 870 km, 98.2° (Epoch: 28 November)

Event Time Altitude Azimuth Distance (km) Brightness Sun altitude
Rises 16:41:32 0° 21° (NNE) 3,456 5.6 -6.0°
Reaches altitude 10° 16:44:09 10° 30° (NNE) 2,506 4.8 -6.5°
Maximum altitude 16:49:14 36° 96° (E) 1,324 3.3 -7.4°
Drops below altitude 10° 16:54:13 10° 162° (SSE) 2,446 5.0 -8.3°
Sets 16:56:43 0° 171° (S) 3,361 5.8 -8.8°
